Time,TemperatureF,DewpointF,PressureIn,WindDirection,WindDirectionDegrees,WindSpeedMPH,WindSpeedGustMPH,Humidity,HourlyPrecipIn,Conditions,Clouds,dailyrainin,SoftwareType,DateUTC
2013-01-21 00:04:00,43.0,42.3,-100.00,SE,135,0.0,0.0,97,0.00,,,0.00,,2013-01-21 06:04:00,
2013-01-21 00:09:00,43.1,42.3,-100.00,SE,135,0.0,0.0,96,0.00,,,0.00,,2013-01-21 06:09:00,
2013-01-21 00:14:00,43.2,42.5,-100.00,SE,135,0.1,0.4,97,0.00,,,0.00,,2013-01-21 06:14:00,
2013-01-21 00:19:00,43.1,42.3,-100.00,SE,135,0.1,0.4,96,0.00,,,0.00,,2013-01-21 06:19:00,
2013-01-21 00:24:00,42.9,42.2,-100.00,SE,135,0.0,0.0,97,0.00,,,0.00,,2013-01-21 06:24:00,
2013-01-21 00:29:00,43.0,42.4,-100.00,SE,135,0.0,0.0,97,0.00,,,0.00,,2013-01-21 06:29:00,
2013-01-21 00:34:00,43.0,42.4,-100.00,SE,135,0.0,0.0,97,0.00,,,0.00,,2013-01-21 06:34:00,
2013-01-21 00:39:00,43.0,42.3,-100.00,SE,135,0.0,0.0,97,0.00,,,0.00,,2013-01-21 06:39:00,
2013-01-21 00:44:00,43.1,42.3,-100.00,SE,135,0.0,0.0,96,0.00,,,0.00,,2013-01-21 06:44:00,
2013-01-21 00:49:00,43.0,42.2,-100.00,SE,135,0.0,0.0,96,0.00,,,0.00,,2013-01-21 06:49:00,
2013-01-21 00:54:00,43.0,42.4,-100.00,SE,135,0.0,0.0,97,0.00,,,0.00,,2013-01-21 06:54:00,
2013-01-21 00:59:00,42.8,42.1,-100.00,SE,135,0.0,0.0,97,0.00,,,0.00,,2013-01-21 06:59:00,
2013-01-21 01:04:00,42.8,42.2,-100.00,SE,135,0.0,0.0,97,0.00,,,0.00,,2013-01-21 07:04:00,
2013-01-21 01:09:00,42.6,41.8,-100.00,SE,135,0.0,0.0,97,0.00,,,0.00,,2013-01-21 07:09:00,
2013-01-21 01:14:00,42.5,41.8,-100.00,SE,135,0.0,0.0,97,0.00,,,0.00,,2013-01-21 07:14:00,
2013-01-21 01:19:00,42.6,41.9,-100.00,SE,135,0.0,0.0,97,0.00,,,0.00,,2013-01-21 07:19:00,
2013-01-21 01:24:00,42.3,41.7,-100.00,SE,135,0.0,0.0,97,0.00,,,0.00,,2013-01-21 07:24:00,
2013-01-21 01:29:00,42.2,41.6,-100.00,SE,135,0.0,0.0,97,0.00,,,0.00,,2013-01-21 07:29:00,
2013-01-21 01:34:00,42.1,41.5,-100.00,SE,135,0.0,0.0,97,0.00,,,0.00,,2013-01-21 07:34:00,
2013-01-21 01:39:00,42.1,41.5,-100.00,SE,135,0.0,0.0,97,0.00,,,0.00,,2013-01-21 07:39:00,
2013-01-21 01:44:00,42.1,41.6,-100.00,SE,135,0.0,0.0,97,0.00,,,0.00,,2013-01-21 07:44:00,
2013-01-21 01:50:00,42.0,41.4,-100.00,SE,135,0.0,0.0,97,0.00,,,0.00,,2013-01-21 07:50:00,
2013-01-21 01:55:00,42.0,41.5,-100.00,SE,135,0.0,0.0,97,0.00,,,0.00,,2013-01-21 07:55:00,
2013-01-21 02:00:00,42.1,41.6,-100.00,SE,135,0.0,0.0,97,0.00,,,0.00,,2013-01-21 08:00:00,
2013-01-21 02:05:00,42.0,41.5,-100.00,SE,135,0.0,0.0,97,0.00,,,0.00,,2013-01-21 08:05:00,
2013-01-21 02:10:00,41.9,41.2,-100.00,SE,135,0.0,0.0,97,0.00,,,0.00,,2013-01-21 08:10:00,
2013-01-21 02:15:00,41.9,41.4,-100.00,SE,135,0.0,0.0,97,0.00,,,0.00,,2013-01-21 08:15:00,
2013-01-21 02:20:00,42.0,41.6,-100.00,SE,135,0.0,0.0,98,0.00,,,0.00,,2013-01-21 08:20:00,
2013-01-21 02:25:00,41.9,41.3,-100.00,SE,135,0.0,0.0,97,0.00,,,0.00,,2013-01-21 08:25:00,
2013-01-21 02:30:00,42.0,41.5,-100.00,SE,135,0.0,0.0,97,0.00,,,0.00,,2013-01-21 08:30:00,
2013-01-21 02:35:00,42.0,41.6,-100.00,SE,135,0.0,0.0,98,0.00,,,0.00,,2013-01-21 08:35:00,
2013-01-21 02:40:00,41.9,41.5,-100.00,SE,135,0.0,0.0,98,0.00,,,0.00,,2013-01-21 08:40:00,
2013-01-21 02:45:00,42.0,41.5,-100.00,SE,135,0.0,0.0,98,0.00,,,0.00,,2013-01-21 08:45:00,
2013-01-21 02:50:00,42.1,41.6,-100.00,SE,135,0.0,0.0,97,0.00,,,0.00,,2013-01-21 08:50:00,
2013-01-21 02:55:00,42.2,41.5,-100.00,SE,135,0.0,0.0,97,0.00,,,0.00,,2013-01-21 08:55:00,
2013-01-21 03:00:00,42.1,41.6,-100.00,SE,135,0.0,0.0,97,0.00,,,0.00,,2013-01-21 09:00:00,
2013-01-21 03:05:00,42.0,41.6,-100.00,SE,135,0.0,0.0,98,0.00,,,0.00,,2013-01-21 09:05:00,
2013-01-21 03:10:00,41.9,41.5,-100.00,SE,135,0.0,0.0,98,0.00,,,0.00,,2013-01-21 09:10:00,
2013-01-21 03:15:00,41.9,41.3,-100.00,SE,135,0.0,0.0,97,0.00,,,0.00,,2013-01-21 09:15:00,
2013-01-21 03:20:00,41.9,41.5,-100.00,SE,135,0.0,0.0,98,0.00,,,0.00,,2013-01-21 09:20:00,
2013-01-21 03:25:00,42.0,41.4,-100.00,SE,135,0.0,0.6,97,0.00,,,0.00,,2013-01-21 09:25:00,
2013-01-21 03:30:00,42.0,41.4,-100.00,SE,135,0.1,0.6,97,0.00,,,0.00,,2013-01-21 09:30:00,
2013-01-21 03:35:00,41.9,41.4,-100.00,SE,135,0.0,0.4,97,0.00,,,0.00,,2013-01-21 09:35:00,
2013-01-21 03:40:00,41.8,41.4,-100.00,SE,135,0.0,0.1,98,0.00,,,0.00,,2013-01-21 09:40:00,
2013-01-21 03:46:00,41.7,41.1,-100.00,SE,135,0.0,0.0,97,0.00,,,0.00,,2013-01-21 09:46:00,
2013-01-21 03:51:00,41.6,41.1,-100.00,SE,135,0.0,0.0,98,0.00,,,0.00,,2013-01-21 09:51:00,
2013-01-21 03:56:00,41.6,41.0,-100.00,SE,135,0.0,0.0,97,0.00,,,0.00,,2013-01-21 09:56:00,
2013-01-21 04:01:00,41.2,40.7,-100.00,SE,135,0.0,0.0,97,0.00,,,0.00,,2013-01-21 10:01:00,
2013-01-21 04:06:00,41.1,40.7,-100.00,SE,135,0.0,0.0,98,0.00,,,0.00,,2013-01-21 10:06:00,
2013-01-21 04:11:00,41.2,40.8,-100.00,SE,135,0.0,0.0,98,0.00,,,0.00,,2013-01-21 10:11:00,
2013-01-21 04:16:00,41.0,40.6,-100.00,SE,135,0.0,0.0,98,0.00,,,0.00,,2013-01-21 10:16:00,
2013-01-21 04:22:00,40.8,40.2,-100.00,SE,135,0.0,0.0,97,0.00,,,0.00,,2013-01-21 10:22:00,
2013-01-21 04:27:00,40.8,40.3,-100.00,SE,135,0.0,0.0,98,0.00,,,0.00,,2013-01-21 10:27:00,
2013-01-21 04:32:00,41.0,40.5,-100.00,SE,135,0.0,0.0,97,0.00,,,0.00,,2013-01-21 10:32:00,
2013-01-21 04:37:00,41.0,40.4,-100.00,SE,135,0.0,0.0,97,0.00,,,0.00,,2013-01-21 10:37:00,
2013-01-21 04:42:00,41.0,40.6,-100.00,SE,135,0.0,0.0,98,0.00,,,0.00,,2013-01-21 10:42:00,
2013-01-21 04:47:00,40.9,40.6,-100.00,SE,135,0.0,0.4,98,0.00,,,0.00,,2013-01-21 10:47:00,
2013-01-21 04:52:00,40.7,40.3,-100.00,SE,135,0.0,0.4,98,0.00,,,0.00,,2013-01-21 10:52:00,
2013-01-21 04:57:00,40.7,40.3,-100.00,SE,135,0.1,0.7,98,0.00,,,0.00,,2013-01-21 10:57:00,
2013-01-21 05:02:00,40.7,40.4,-100.00,SE,135,0.3,0.7,99,0.00,,,0.00,,2013-01-21 11:02:00,
2013-01-21 05:07:00,40.5,40.2,-100.00,SE,135,0.2,0.6,98,0.00,,,0.00,,2013-01-21 11:07:00,
2013-01-21 05:12:00,40.4,40.2,-100.00,South,180,0.2,1.0,98,0.00,,,0.00,,2013-01-21 11:12:00,
2013-01-21 05:18:00,40.4,40.0,-100.00,SW,225,0.2,1.0,98,0.00,,,0.00,,2013-01-21 11:18:00,
2013-01-21 05:23:00,40.3,40.1,-100.00,SW,225,0.0,0.0,98,0.00,,,0.00,,2013-01-21 11:23:00,
2013-01-21 05:28:00,40.2,40.0,-100.00,SW,225,0.0,0.0,99,0.00,,,0.00,,2013-01-21 11:28:00,
2013-01-21 05:33:00,40.1,39.7,-100.00,SW,225,0.0,0.0,98,0.00,,,0.00,,2013-01-21 11:33:00,
2013-01-21 05:38:00,40.0,39.7,-100.00,SW,225,0.0,0.0,98,0.00,,,0.00,,2013-01-21 11:38:00,
2013-01-21 05:43:00,40.0,39.7,-100.00,SW,225,0.0,0.0,98,0.00,,,0.00,,2013-01-21 11:43:00,
2013-01-21 05:48:00,39.9,39.7,-100.00,SW,225,0.1,0.6,99,0.00,,,0.00,,2013-01-21 11:48:00,
2013-01-21 05:53:00,39.7,39.6,-100.00,SW,225,0.1,0.6,99,0.00,,,0.00,,2013-01-21 11:53:00,
2013-01-21 05:58:00,39.5,39.4,-100.00,SW,225,0.0,0.0,99,0.00,,,0.00,,2013-01-21 11:58:00,
2013-01-21 06:03:00,39.5,39.4,-100.00,SW,225,0.0,0.0,99,0.00,,,0.00,,2013-01-21 12:03:00,
2013-01-21 06:08:00,39.7,39.6,-100.00,SW,225,0.0,0.0,99,0.00,,,0.00,,2013-01-21 12:08:00,
2013-01-21 06:13:00,39.7,39.6,-100.00,SW,225,0.0,0.0,99,0.00,,,0.00,,2013-01-21 12:13:00,
2013-01-21 06:18:00,39.7,39.5,-100.00,SW,225,0.0,0.0,99,0.00,,,0.00,,2013-01-21 12:18:00,
2013-01-21 06:23:00,39.7,39.6,-100.00,SW,225,0.0,0.0,99,0.00,,,0.00,,2013-01-21 12:23:00,
2013-01-21 06:28:00,39.7,39.6,-100.00,SW,225,0.0,0.0,99,0.00,,,0.00,,2013-01-21 12:28:00,
2013-01-21 06:33:00,39.7,39.6,-100.00,SW,225,0.0,0.0,99,0.00,,,0.00,,2013-01-21 12:33:00,
2013-01-21 06:38:00,39.7,39.5,-100.00,SW,225,0.0,0.0,99,0.00,,,0.00,,2013-01-21 12:38:00,
2013-01-21 06:43:00,39.5,39.4,-100.00,SW,225,0.0,0.0,99,0.00,,,0.00,,2013-01-21 12:43:00,
2013-01-21 06:48:00,39.5,39.4,-100.00,SW,225,0.0,0.0,99,0.00,,,0.00,,2013-01-21 12:48:00,
2013-01-21 06:53:00,39.5,39.5,-100.00,SW,225,0.0,0.0,99,0.00,,,0.00,,2013-01-21 12:53:00,
2013-01-21 06:58:00,39.5,39.4,-100.00,SW,225,0.0,0.0,99,0.00,,,0.00,,2013-01-21 12:58:00,
2013-01-21 07:03:00,39.4,39.2,-100.00,SW,225,0.0,0.0,99,0.00,,,0.00,,2013-01-21 13:03:00,
2013-01-21 07:08:00,39.5,39.5,-100.00,SW,225,0.0,0.0,99,0.00,,,0.00,,2013-01-21 13:08:00,
2013-01-21 07:13:00,39.7,39.5,-100.00,SW,225,0.0,0.0,99,0.00,,,0.00,,2013-01-21 13:13:00,
2013-01-21 07:18:00,39.9,39.8,-100.00,SW,225,0.0,0.0,99,0.00,,,0.00,,2013-01-21 13:18:00,
2013-01-21 07:23:00,40.1,40.0,-100.00,SW,225,0.0,0.0,99,0.00,,,0.00,,2013-01-21 13:23:00,
2013-01-21 07:28:00,40.5,40.5,-100.00,SW,225,0.0,0.7,100,0.00,,,0.00,,2013-01-21 13:28:00,
2013-01-21 07:34:00,41.0,41.0,-100.00,WSW,247,0.0,0.7,99,0.00,,,0.00,,2013-01-21 13:34:00,
2013-01-21 07:39:00,41.5,41.3,-100.00,WSW,247,0.1,0.6,99,0.00,,,0.00,,2013-01-21 13:39:00,
2013-01-21 07:44:00,42.1,42.0,-100.00,WSW,247,0.1,0.6,99,0.00,,,0.00,,2013-01-21 13:44:00,
2013-01-21 07:49:00,43.0,42.9,-100.00,WSW,247,0.1,0.7,99,0.00,,,0.00,,2013-01-21 13:49:00,
2013-01-21 07:54:00,43.7,43.5,-100.00,WSW,247,0.2,0.7,99,0.00,,,0.00,,2013-01-21 13:54:00,
2013-01-21 07:59:00,44.5,44.2,-100.00,WSW,247,0.4,1.2,98,0.00,,,0.00,,2013-01-21 13:59:00,
2013-01-21 08:04:00,45.0,44.7,-100.00,SW,225,0.7,1.8,98,0.00,,,0.00,,2013-01-21 14:04:00,
2013-01-21 08:09:00,45.5,45.0,-100.00,South,180,1.1,2.5,98,0.00,,,0.00,,2013-01-21 14:09:00,
2013-01-21 08:14:00,46.0,45.6,-100.00,South,180,1.3,2.5,98,0.00,,,0.00,,2013-01-21 14:14:00,
2013-01-21 08:19:00,46.3,45.9,-100.00,SSW,202,1.5,3.3,98,0.00,,,0.00,,2013-01-21 14:19:00,
2013-01-21 08:24:00,47.1,46.3,-100.00,SSE,157,1.7,3.6,97,0.00,,,0.00,,2013-01-21 14:24:00,
2013-01-21 08:29:00,47.9,46.6,-100.00,ESE,112,1.4,3.4,95,0.00,,,0.00,,2013-01-21 14:29:00,
2013-01-21 08:34:00,48.5,46.7,-100.00,SE,135,1.3,3.4,93,0.00,,,0.00,,2013-01-21 14:34:00,
2013-01-21 08:39:00,49.8,47.1,-100.00,SE,135,1.0,2.8,90,0.00,,,0.00,,2013-01-21 14:39:00,
2013-01-21 08:44:00,50.5,46.6,-100.00,ESE,112,0.9,2.6,86,0.00,,,0.00,,2013-01-21 14:44:00,
2013-01-21 08:49:00,51.5,46.4,-100.00,SSE,157,1.1,2.6,82,0.00,,,0.00,,2013-01-21 14:49:00,
2013-01-21 08:54:00,51.8,45.3,-100.00,SE,135,1.4,3.1,78,0.00,,,0.00,,2013-01-21 14:54:00,
2013-01-21 08:59:00,52.6,45.4,-100.00,SE,135,2.0,3.8,76,0.00,,,0.00,,2013-01-21 14:59:00,
2013-01-21 09:04:00,52.8,45.0,-100.00,SSE,157,2.5,5.6,74,0.00,,,0.00,,2013-01-21 15:04:00,
2013-01-21 09:09:00,53.3,44.9,-100.00,South,180,3.0,5.6,72,0.00,,,0.00,,2013-01-21 15:09:00,
2013-01-21 09:14:00,54.0,44.2,-100.00,SSE,157,2.6,4.9,69,0.00,,,0.00,,2013-01-21 15:14:00,
2013-01-21 09:19:00,55.0,45.3,-100.00,SSE,157,2.6,4.9,69,0.00,,,0.00,,2013-01-21 15:19:00,
2013-01-21 09:24:00,55.7,45.0,-100.00,SSE,157,2.5,4.9,66,0.00,,,0.00,,2013-01-21 15:24:00,
2013-01-21 09:29:00,56.6,44.9,-100.00,SE,135,2.5,5.2,64,0.00,,,0.00,,2013-01-21 15:29:00,
2013-01-21 09:34:00,57.4,45.0,-100.00,ESE,112,1.9,5.2,62,0.00,,,0.00,,2013-01-21 15:34:00,
2013-01-21 09:39:00,57.7,43.5,-100.00,SE,135,1.6,4.2,58,0.00,,,0.00,,2013-01-21 15:39:00,
2013-01-21 09:44:00,58.2,42.6,-100.00,ESE,112,2.2,4.2,55,0.00,,,0.00,,2013-01-21 15:44:00,
2013-01-21 09:49:00,58.3,40.5,-100.00,SE,135,2.6,5.6,51,0.00,,,0.00,,2013-01-21 15:49:00,
2013-01-21 09:54:00,58.8,39.7,-100.00,SE,135,3.1,5.8,48,0.00,,,0.00,,2013-01-21 15:54:00,
2013-01-21 09:59:00,59.8,40.3,-100.00,SE,135,2.7,6.4,48,0.00,,,0.00,,2013-01-21 15:59:00,
2013-01-21 10:04:00,59.9,40.3,-100.00,SE,135,2.6,6.4,47,0.00,,,0.00,,2013-01-21 16:04:00,
2013-01-21 10:09:00,60.3,39.5,-100.00,SSE,157,2.9,4.9,45,0.00,,,0.00,,2013-01-21 16:09:00,
2013-01-21 10:14:00,60.6,39.8,-100.00,SSE,157,2.6,4.6,45,0.00,,,0.00,,2013-01-21 16:14:00,
2013-01-21 10:19:00,61.0,38.5,-100.00,East,90,2.3,3.9,42,0.00,,,0.00,,2013-01-21 16:19:00,
2013-01-21 10:24:00,61.0,38.2,-100.00,East,90,2.9,5.8,42,0.00,,,0.00,,2013-01-21 16:24:00,
2013-01-21 10:29:00,61.2,38.0,-100.00,ESE,112,3.0,5.8,41,0.00,,,0.00,,2013-01-21 16:29:00,
2013-01-21 10:34:00,62.0,36.7,-100.00,East,90,2.9,5.9,38,0.00,,,0.00,,2013-01-21 16:34:00,
2013-01-21 10:39:00,61.8,36.6,-100.00,East,90,3.0,5.9,38,0.00,,,0.00,,2013-01-21 16:39:00,
2013-01-21 10:44:00,62.0,38.0,-100.00,East,90,3.4,6.2,40,0.00,,,0.00,,2013-01-21 16:44:00,
2013-01-21 10:49:00,62.2,36.9,-100.00,East,90,3.5,6.8,38,0.00,,,0.00,,2013-01-21 16:49:00,
2013-01-21 10:54:00,62.6,37.9,-100.00,SE,135,3.4,6.8,39,0.00,,,0.00,,2013-01-21 16:54:00,
2013-01-21 10:59:00,62.2,37.5,-100.00,SE,135,3.4,7.2,39,0.00,,,0.00,,2013-01-21 16:59:00,
2013-01-21 11:04:00,62.7,38.8,-100.00,ESE,112,3.7,7.2,40,0.00,,,0.00,,2013-01-21 17:04:00,
2013-01-21 11:09:00,62.6,38.1,-100.00,ESE,112,4.0,7.9,39,0.00,,,0.00,,2013-01-21 17:09:00,
2013-01-21 11:14:00,63.3,38.9,-100.00,ESE,112,3.7,7.1,40,0.00,,,0.00,,2013-01-21 17:14:00,
2013-01-21 11:19:00,64.4,39.9,-100.00,SE,135,3.0,5.6,40,0.00,,,0.00,,2013-01-21 17:19:00,
2013-01-21 11:24:00,63.5,38.9,-100.00,ESE,112,3.4,6.8,39,0.00,,,0.00,,2013-01-21 17:24:00,
2013-01-21 11:29:00,64.1,38.7,-100.00,ESE,112,3.6,6.8,38,0.00,,,0.00,,2013-01-21 17:29:00,
2013-01-21 11:34:00,64.4,39.7,-100.00,SSE,157,3.4,8.0,39,0.00,,,0.00,,2013-01-21 17:34:00,
2013-01-21 11:39:00,64.0,39.4,-100.00,SSE,157,4.2,8.0,39,0.00,,,0.00,,2013-01-21 17:39:00,
2013-01-21 11:44:00,64.4,39.6,-100.00,SSE,157,4.1,7.1,39,0.00,,,0.00,,2013-01-21 17:44:00,
2013-01-21 11:49:00,64.7,39.0,-100.00,SE,135,3.3,7.1,38,0.00,,,0.00,,2013-01-21 17:49:00,
2013-01-21 11:55:00,63.6,39.2,-100.00,ESE,112,4.1,8.1,40,0.00,,,0.00,,2013-01-21 17:55:00,
2013-01-21 12:00:00,64.6,39.6,-100.00,South,180,4.0,8.1,39,0.00,,,0.00,,2013-01-21 18:00:00,
2013-01-21 12:05:00,65.0,39.9,-100.00,SSE,157,3.2,7.7,39,0.00,,,0.00,,2013-01-21 18:05:00,
2013-01-21 12:10:00,64.6,39.4,-100.00,SSE,157,4.0,7.1,39,0.00,,,0.00,,2013-01-21 18:10:00,
2013-01-21 12:15:00,64.7,39.3,-100.00,East,90,4.5,10.4,38,0.00,,,0.00,,2013-01-21 18:15:00,
2013-01-21 12:20:00,65.4,40.2,-100.00,East,90,4.3,10.4,39,0.00,,,0.00,,2013-01-21 18:20:00,
2013-01-21 12:25:00,65.0,39.4,-100.00,South,180,3.5,6.9,38,0.00,,,0.00,,2013-01-21 18:25:00,
2013-01-21 12:30:00,64.7,38.7,-100.00,South,180,3.2,7.3,37,0.00,,,0.00,,2013-01-21 18:30:00,
2013-01-21 12:35:00,65.2,39.9,-100.00,SE,135,3.7,7.3,39,0.00,,,0.00,,2013-01-21 18:35:00,
2013-01-21 12:40:00,66.5,39.8,-100.00,ENE,67,3.1,5.5,37,0.00,,,0.00,,2013-01-21 18:40:00,
2013-01-21 12:45:00,65.4,39.3,-100.00,East,90,3.2,6.8,37,0.00,,,0.00,,2013-01-21 18:45:00,
2013-01-21 12:50:00,66.1,39.7,-100.00,SE,135,3.5,6.8,37,0.00,,,0.00,,2013-01-21 18:50:00,
2013-01-21 12:55:00,65.1,39.0,-100.00,ENE,67,3.9,7.0,37,0.00,,,0.00,,2013-01-21 18:55:00,
2013-01-21 13:00:00,65.2,38.8,-100.00,NNE,22,3.9,7.1,37,0.00,,,0.00,,2013-01-21 19:00:00,
2013-01-21 13:05:00,65.6,38.6,-100.00,ENE,67,3.1,7.1,36,0.00,,,0.00,,2013-01-21 19:05:00,
2013-01-21 13:10:00,65.5,40.1,-100.00,East,90,2.8,5.8,38,0.00,,,0.00,,2013-01-21 19:10:00,
2013-01-21 13:15:00,66.0,40.0,-100.00,ESE,112,2.7,5.5,38,0.00,,,0.00,,2013-01-21 19:15:00,
2013-01-21 13:20:00,65.3,38.0,-100.00,SE,135,2.7,5.7,36,0.00,,,0.00,,2013-01-21 19:20:00,
2013-01-21 13:25:00,66.2,39.8,-100.00,East,90,2.7,6.8,37,0.00,,,0.00,,2013-01-21 19:25:00,
2013-01-21 13:30:00,65.8,38.4,-100.00,ESE,112,3.3,6.8,36,0.00,,,0.00,,2013-01-21 19:30:00,
2013-01-21 13:35:00,65.9,39.0,-100.00,East,90,3.2,5.0,36,0.00,,,0.00,,2013-01-21 19:35:00,
2013-01-21 13:40:00,66.2,40.3,-100.00,ESE,112,2.2,4.5,38,0.00,,,0.00,,2013-01-21 19:40:00,
2013-01-21 13:45:00,66.0,39.9,-100.00,NE,45,1.9,4.3,37,0.00,,,0.00,,2013-01-21 19:45:00,
2013-01-21 13:50:00,66.0,37.6,-100.00,East,90,2.8,5.8,34,0.00,,,0.00,,2013-01-21 19:50:00,
2013-01-21 13:55:00,66.2,38.8,-100.00,SSE,157,3.2,5.8,36,0.00,,,0.00,,2013-01-21 19:55:00,
2013-01-21 14:00:00,65.8,38.7,-100.00,South,180,2.8,4.9,36,0.00,,,0.00,,2013-01-21 20:00:00,
2013-01-21 14:05:00,66.4,39.2,-100.00,SE,135,2.7,5.2,36,0.00,,,0.00,,2013-01-21 20:05:00,
2013-01-21 14:11:00,66.1,38.5,-100.00,SE,135,3.0,6.3,35,0.00,,,0.00,,2013-01-21 20:11:00,
2013-01-21 14:16:00,66.1,38.0,-100.00,SSE,157,3.1,6.3,35,0.00,,,0.00,,2013-01-21 20:16:00,
2013-01-21 14:21:00,67.0,38.7,-100.00,ESE,112,2.6,6.6,34,0.00,,,0.00,,2013-01-21 20:21:00,
2013-01-21 14:26:00,66.8,37.5,-100.00,ENE,67,2.5,6.6,33,0.00,,,0.00,,2013-01-21 20:26:00,
2013-01-21 14:31:00,67.1,38.3,-100.00,NE,45,1.9,4.9,34,0.00,,,0.00,,2013-01-21 20:31:00,
2013-01-21 14:36:00,66.1,37.8,-100.00,NNE,22,2.4,5.9,34,0.00,,,0.00,,2013-01-21 20:36:00,
2013-01-21 14:41:00,64.1,40.9,-100.00,NNE,22,2.8,5.9,42,0.00,,,0.00,,2013-01-21 20:41:00,
2013-01-21 14:46:00,64.0,42.5,-100.00,East,90,3.2,5.9,45,0.00,,,0.00,,2013-01-21 20:46:00,
2013-01-21 14:51:00,62.9,41.7,-100.00,ENE,67,3.2,5.9,45,0.00,,,0.00,,2013-01-21 20:51:00,
2013-01-21 14:56:00,62.6,41.9,-100.00,ENE,67,2.5,3.7,46,0.00,,,0.00,,2013-01-21 20:56:00,
2013-01-21 15:01:00,63.3,42.8,-100.00,NE,45,2.2,3.7,46,0.00,,,0.00,,2013-01-21 21:01:00,
2013-01-21 15:06:00,62.7,43.2,-100.00,NE,45,2.1,4.2,48,0.00,,,0.00,,2013-01-21 21:06:00,
2013-01-21 15:11:00,62.3,43.1,-100.00,ENE,67,2.7,4.2,49,0.00,,,0.00,,2013-01-21 21:11:00,
2013-01-21 15:16:00,62.5,43.3,-100.00,East,90,2.7,4.1,49,0.00,,,0.00,,2013-01-21 21:16:00,
2013-01-21 15:21:00,62.9,42.2,-100.00,East,90,2.2,3.7,46,0.00,,,0.00,,2013-01-21 21:21:00,
2013-01-21 15:26:00,62.7,42.5,-100.00,NE,45,1.8,3.7,47,0.00,,,0.00,,2013-01-21 21:26:00,
2013-01-21 15:31:00,64.0,43.7,-100.00,ENE,67,1.8,4.3,47,0.00,,,0.00,,2013-01-21 21:31:00,
2013-01-21 15:36:00,63.4,42.8,-100.00,ENE,67,2.0,4.3,46,0.00,,,0.00,,2013-01-21 21:36:00,
2013-01-21 15:41:00,63.3,43.1,-100.00,ENE,67,1.6,2.5,47,0.00,,,0.00,,2013-01-21 21:41:00,
2013-01-21 15:46:00,63.6,43.4,-100.00,East,90,1.6,3.1,47,0.00,,,0.00,,2013-01-21 21:46:00,
2013-01-21 15:52:00,63.0,43.1,-100.00,East,90,1.6,3.1,47,0.00,,,0.00,,2013-01-21 21:52:00,
2013-01-21 15:57:00,63.0,42.1,-100.00,ENE,67,1.6,3.7,45,0.00,,,0.00,,2013-01-21 21:57:00,
2013-01-21 16:02:00,64.8,38.8,-100.00,ESE,112,2.9,6.6,37,0.00,,,0.00,,2013-01-21 22:02:00,
2013-01-21 16:07:00,64.8,38.3,-100.00,SE,135,4.1,7.5,37,0.00,,,0.00,,2013-01-21 22:07:00,
2013-01-21 16:12:00,64.8,38.2,-100.00,SE,135,3.4,6.4,36,0.00,,,0.00,,2013-01-21 22:12:00,
2013-01-21 16:17:00,65.1,39.2,-100.00,ESE,112,3.1,6.4,38,0.00,,,0.00,,2013-01-21 22:17:00,
2013-01-21 16:22:00,64.8,39.0,-100.00,ESE,112,3.1,5.6,38,0.00,,,0.00,,2013-01-21 22:22:00,
2013-01-21 16:27:00,64.7,38.7,-100.00,SSE,157,3.3,5.5,37,0.00,,,0.00,,2013-01-21 22:27:00,
2013-01-21 16:32:00,64.7,39.4,-100.00,South,180,3.1,6.6,38,0.00,,,0.00,,2013-01-21 22:32:00,
2013-01-21 16:37:00,64.3,39.8,-100.00,South,180,2.9,6.6,40,0.00,,,0.00,,2013-01-21 22:37:00,
2013-01-21 16:42:00,63.8,38.5,-100.00,South,180,2.3,4.3,38,0.00,,,0.00,,2013-01-21 22:42:00,
2013-01-21 16:47:00,63.5,39.9,-100.00,SSW,202,2.1,4.2,41,0.00,,,0.00,,2013-01-21 22:47:00,
2013-01-21 16:52:00,63.2,39.5,-100.00,SSW,202,2.3,4.4,41,0.00,,,0.00,,2013-01-21 22:52:00,
2013-01-21 16:57:00,62.8,38.8,-100.00,South,180,2.4,4.4,40,0.00,,,0.00,,2013-01-21 22:57:00,
2013-01-21 17:02:00,62.7,39.5,-100.00,South,180,2.1,4.5,41,0.00,,,0.00,,2013-01-21 23:02:00,
2013-01-21 17:07:00,62.5,38.6,-100.00,South,180,1.6,4.5,40,0.00,,,0.00,,2013-01-21 23:07:00,
2013-01-21 17:12:00,62.2,39.7,-100.00,SSW,202,1.4,3.5,43,0.00,,,0.00,,2013-01-21 23:12:00,
2013-01-21 17:17:00,61.9,39.8,-100.00,SW,225,1.2,2.4,43,0.00,,,0.00,,2013-01-21 23:17:00,
2013-01-21 17:22:00,61.7,39.9,-100.00,SSW,202,0.8,2.1,44,0.00,,,0.00,,2013-01-21 23:22:00,
2013-01-21 17:27:00,61.2,40.3,-100.00,SW,225,0.3,0.9,45,0.00,,,0.00,,2013-01-21 23:27:00,
2013-01-21 17:32:00,60.8,40.7,-100.00,ESE,112,0.1,0.7,47,0.00,,,0.00,,2013-01-21 23:32:00,
2013-01-21 17:37:00,60.3,40.9,-100.00,SSW,202,0.0,0.6,48,0.00,,,0.00,,2013-01-21 23:37:00,
2013-01-21 17:42:00,59.7,42.3,-100.00,WSW,247,0.0,0.0,52,0.00,,,0.00,,2013-01-21 23:42:00,
2013-01-21 17:47:00,58.1,42.2,-100.00,SSW,202,0.0,0.0,54,0.00,,,0.00,,2013-01-21 23:47:00,
2013-01-21 17:52:00,57.5,42.7,-100.00,SE,135,0.0,0.0,57,0.00,,,0.00,,2013-01-21 23:52:00,
2013-01-21 17:57:00,56.9,42.9,-100.00,SE,135,0.0,0.0,59,0.00,,,0.00,,2013-01-21 23:57:00,
2013-01-21 18:02:00,56.0,42.8,-100.00,SE,135,0.0,0.0,60,0.00,,,0.00,,2013-01-22 00:02:00,
2013-01-21 18:07:00,55.3,42.8,-100.00,SE,135,0.0,0.0,62,0.00,,,0.00,,2013-01-22 00:07:00,
2013-01-21 18:12:00,55.1,43.2,-100.00,ESE,112,0.0,0.0,63,0.00,,,0.00,,2013-01-22 00:12:00,
2013-01-21 18:17:00,54.7,43.6,-100.00,ESE,112,0.0,0.0,65,0.00,,,0.00,,2013-01-22 00:17:00,
2013-01-21 18:22:00,54.6,43.9,-100.00,ESE,112,0.0,0.0,66,0.00,,,0.00,,2013-01-22 00:22:00,
2013-01-21 18:27:00,54.4,43.9,-100.00,ESE,112,0.0,0.0,67,0.00,,,0.00,,2013-01-22 00:27:00,
2013-01-21 18:32:00,53.8,43.9,-100.00,ESE,112,0.0,0.0,68,0.00,,,0.00,,2013-01-22 00:32:00,
2013-01-21 18:37:00,53.5,43.9,-100.00,ESE,112,0.0,0.0,69,0.00,,,0.00,,2013-01-22 00:37:00,
2013-01-21 18:42:00,53.4,44.1,-100.00,ESE,112,0.0,0.0,70,0.00,,,0.00,,2013-01-22 00:42:00,
2013-01-21 18:47:00,53.2,44.2,-100.00,ESE,112,0.0,0.0,71,0.00,,,0.00,,2013-01-22 00:47:00,
2013-01-21 18:52:00,52.8,44.2,-100.00,ESE,112,0.0,0.0,72,0.00,,,0.00,,2013-01-22 00:52:00,
2013-01-21 18:57:00,52.7,44.5,-100.00,ESE,112,0.0,0.0,73,0.00,,,0.00,,2013-01-22 00:57:00,
2013-01-21 19:02:00,52.4,44.3,-100.00,ESE,112,0.0,0.0,73,0.00,,,0.00,,2013-01-22 01:02:00,
2013-01-21 19:07:00,52.1,44.4,-100.00,ESE,112,0.0,0.0,74,0.00,,,0.00,,2013-01-22 01:07:00,
2013-01-21 19:12:00,52.0,44.3,-100.00,ESE,112,0.0,0.0,74,0.00,,,0.00,,2013-01-22 01:12:00,
2013-01-21 19:17:00,51.8,44.6,-100.00,ESE,112,0.0,0.0,76,0.00,,,0.00,,2013-01-22 01:17:00,
2013-01-21 19:22:00,51.6,44.5,-100.00,ESE,112,0.0,0.0,76,0.00,,,0.00,,2013-01-22 01:22:00,
2013-01-21 19:27:00,51.5,44.7,-100.00,ESE,112,0.0,0.0,77,0.00,,,0.00,,2013-01-22 01:27:00,
2013-01-21 19:33:00,51.3,44.6,-100.00,ESE,112,0.0,0.0,77,0.00,,,0.00,,2013-01-22 01:33:00,
2013-01-21 19:38:00,51.2,44.8,-100.00,ESE,112,0.0,0.0,78,0.00,,,0.00,,2013-01-22 01:38:00,
2013-01-21 19:43:00,51.1,44.7,-100.00,ESE,112,0.0,0.0,78,0.00,,,0.00,,2013-01-22 01:43:00,
2013-01-21 19:48:00,51.1,44.9,-100.00,ESE,112,0.0,0.0,78,0.00,,,0.00,,2013-01-22 01:48:00,
2013-01-21 19:53:00,50.9,44.6,-100.00,ESE,112,0.0,0.0,78,0.00,,,0.00,,2013-01-22 01:53:00,
2013-01-21 19:58:00,50.8,44.8,-100.00,ESE,112,0.0,0.0,79,0.00,,,0.00,,2013-01-22 01:58:00,
2013-01-21 20:03:00,50.8,44.9,-100.00,ESE,112,0.0,0.0,80,0.00,,,0.00,,2013-01-22 02:03:00,
2013-01-21 20:08:00,50.7,45.1,-100.00,ESE,112,0.0,0.0,81,0.00,,,0.00,,2013-01-22 02:08:00,
2013-01-21 20:13:00,50.9,45.1,-100.00,ESE,112,0.0,0.0,80,0.00,,,0.00,,2013-01-22 02:13:00,
2013-01-21 20:18:00,50.8,45.2,-100.00,ESE,112,0.0,0.0,81,0.00,,,0.00,,2013-01-22 02:18:00,
2013-01-21 20:23:00,50.6,45.0,-100.00,ESE,112,0.0,0.0,81,0.00,,,0.00,,2013-01-22 02:23:00,
2013-01-21 20:28:00,50.5,45.1,-100.00,ESE,112,0.0,0.0,81,0.00,,,0.00,,2013-01-22 02:28:00,
2013-01-21 20:33:00,50.3,45.0,-100.00,ESE,112,0.0,0.0,81,0.00,,,0.00,,2013-01-22 02:33:00,
2013-01-21 20:38:00,50.3,45.0,-100.00,ESE,112,0.0,0.0,81,0.00,,,0.00,,2013-01-22 02:38:00,
2013-01-21 20:43:00,50.0,44.8,-100.00,ESE,112,0.0,0.0,82,0.00,,,0.00,,2013-01-22 02:43:00,
2013-01-21 20:48:00,49.8,44.8,-100.00,ESE,112,0.0,0.0,82,0.00,,,0.00,,2013-01-22 02:48:00,
2013-01-21 20:53:00,49.7,44.8,-100.00,ESE,112,0.0,0.0,83,0.00,,,0.00,,2013-01-22 02:53:00,
2013-01-21 20:58:00,49.7,44.8,-100.00,ESE,112,0.0,0.0,83,0.00,,,0.00,,2013-01-22 02:58:00,
2013-01-21 21:03:00,49.5,44.6,-100.00,ESE,112,0.0,0.0,82,0.00,,,0.00,,2013-01-22 03:03:00,
2013-01-21 21:08:00,49.3,44.3,-100.00,ESE,112,0.0,0.0,82,0.00,,,0.00,,2013-01-22 03:08:00,
2013-01-21 21:13:00,49.2,44.6,-100.00,ESE,112,0.0,0.0,83,0.00,,,0.00,,2013-01-22 03:13:00,
2013-01-21 21:18:00,49.2,44.7,-100.00,ESE,112,0.0,0.0,84,0.00,,,0.00,,2013-01-22 03:18:00,
2013-01-21 21:23:00,49.1,44.7,-100.00,ESE,112,0.0,0.0,84,0.00,,,0.00,,2013-01-22 03:23:00,
2013-01-21 21:28:00,49.0,44.6,-100.00,ESE,112,0.0,0.0,84,0.00,,,0.00,,2013-01-22 03:28:00,
2013-01-21 21:33:00,49.0,44.5,-100.00,ESE,112,0.0,0.0,84,0.00,,,0.00,,2013-01-22 03:33:00,
2013-01-21 21:38:00,49.0,44.7,-100.00,ESE,112,0.0,0.0,84,0.00,,,0.00,,2013-01-22 03:38:00,
2013-01-21 21:43:00,49.1,44.6,-100.00,ESE,112,0.0,0.0,84,0.00,,,0.00,,2013-01-22 03:43:00,
2013-01-21 21:48:00,49.2,44.6,-100.00,ESE,112,0.0,0.0,83,0.00,,,0.00,,2013-01-22 03:48:00,
2013-01-21 21:53:00,49.2,44.6,-100.00,ESE,112,0.0,0.0,83,0.00,,,0.00,,2013-01-22 03:53:00,
2013-01-21 21:58:00,49.2,44.3,-100.00,ESE,112,0.0,0.0,82,0.00,,,0.00,,2013-01-22 03:58:00,
2013-01-21 22:03:00,49.2,44.3,-100.00,SE,135,0.0,0.0,82,0.00,,,0.00,,2013-01-22 04:03:00,
2013-01-21 22:08:00,49.3,44.2,-100.00,SSW,202,0.2,1.0,82,0.00,,,0.00,,2013-01-22 04:08:00,
2013-01-21 22:13:00,49.7,44.2,-100.00,WSW,247,0.6,1.0,81,0.00,,,0.00,,2013-01-22 04:13:00,
2013-01-21 22:18:00,49.9,44.1,-100.00,SW,225,0.6,1.0,80,0.00,,,0.00,,2013-01-22 04:18:00,
2013-01-21 22:23:00,49.9,43.7,-100.00,SW,225,0.5,1.6,78,0.00,,,0.00,,2013-01-22 04:23:00,
2013-01-21 22:28:00,49.9,43.6,-100.00,SW,225,0.7,1.6,78,0.00,,,0.00,,2013-01-22 04:28:00,
2013-01-21 22:33:00,49.8,43.6,-100.00,WSW,247,0.4,1.2,79,0.00,,,0.00,,2013-01-22 04:33:00,
2013-01-21 22:38:00,49.5,43.4,-100.00,SSE,157,0.0,0.0,79,0.00,,,0.00,,2013-01-22 04:38:00,
2013-01-21 22:43:00,49.4,43.4,-100.00,NW,315,0.0,0.3,79,0.00,,,0.00,,2013-01-22 04:43:00,
2013-01-21 22:48:00,49.2,43.4,-100.00,West,270,0.0,0.3,80,0.00,,,0.00,,2013-01-22 04:48:00,
2013-01-21 22:53:00,49.2,43.3,-100.00,East,90,0.1,0.9,79,0.00,,,0.00,,2013-01-22 04:53:00,
2013-01-21 22:58:00,48.9,43.3,-100.00,WSW,247,0.0,0.3,80,0.00,,,0.00,,2013-01-22 04:58:00,
2013-01-21 23:00:00,49.0,43.5,-100.00,WSW,247,0.0,0.4,81,0.00,,,0.00,,2013-01-22 05:00:00,